Regional Weather Roundup
Issued by NWS

Home | Current Version | Previous Version | Graphics & Text | Print | Product List | Glossary On
Versions: 1 2 3 4 5 6 7 8 9 10 11 12 13 14 15 16 17 18 19 20 21 22 23 24 25 26 27 28 29 30 31 32 33 34 35 36 37 38 39 40 41 42 43 44 45 46 47 48 49
000
ASUS45 KCYS 031910
RWRWY

WYOMING REGIONAL WEATHER ROUNDUP
NATIONAL WEATHER SERVICE CHEYENNE WY
100 PM MDT SUN MAY 03 2015

NOTE:  "FAIR" INDICATES FEW OR NO CLOUDS BELOW 12,000 FEET
WITH NO SIGNIFICANT WEATHER AND/OR OBSTRUCTIONS TO VISIBILITY.

WYZ001-032000-
YELLOWSTONE NATIONAL PARK

CITY           SKY/WX    TMP DP  RH WIND       PRES   REMARKS
LK YELLOWSTONE   N/A     55  19  24 VRB7G21   30.07S
W YELLOWSTONE  NOT AVBL

$$
WYZ002>013-054>058-071-098>099-032000-
NORTHERN WYOMING

CITY           SKY/WX    TMP DP  RH WIND       PRES   REMARKS
JACKSON        MOSUNNY   59  32  36 S16       30.02F
CODY           FAIR      55  34  44 NE14      30.01S
GREYBULL       FAIR      65  32  29 NW8       29.95F
WORLAND        FAIR      62  34  35 E5        29.97F
SHERIDAN       FAIR      59  37  44 VRB5      30.01F
BUFFALO        PTSUNNY   59  38  45 VRB6      30.03F
GILLETTE       FAIR      62  35  36 VRB5      30.01F
HULETT         FAIR      63  36  36 N10G17    30.03F
NEWCASTLE      FAIR      68  32  26 SW13G21   29.99S

$$
WYZ014>020-022>026-101>103-032000-
CENTRAL WYOMING

CITY           SKY/WX    TMP DP  RH WIND       PRES   REMARKS
BIG PINEY      FAIR      62  30  29 MISG      30.03F
PINEDALE       FAIR      59  30  33 SW7G16    30.04F
DUBOIS         MOCLDY    55  27  33 SW20G29   30.01F
LANDER         FAIR      67  36  31 N10       29.96F
RIVERTON       FAIR      66  31  27 VRB3      29.98F
CASPER         FAIR      64  35  34 NW8       30.00F
DOUGLAS        FAIR      65  37  35 SE6       30.00F

$$
WYZ021-027>030-104>119-032000-
SOUTHERN WYOMING

CITY           SKY/WX    TMP DP  RH WIND       PRES   REMARKS
EVANSTON       FAIR      58  43  57 N8        30.04F
KEMMERER       FAIR      59  28  31 SW21      30.06S
FORT BRIDGER   TSTM      52  39  62 NW16G31   30.08R
ROCK SPRINGS   FAIR      63  35  35 W9        30.03F
DIXON          FAIR      67  33  29 CALM      30.05F
RAWLINS        PTSUNNY   68  30  24 W16G23    30.02F
SARATOGA       MOCLDY    61  36  39 MISG      30.05S
LARAMIE        PTSUNNY   59  35  40 CALM      30.05F
CHEYENNE       FAIR      65  37  35 NE15G21   30.01S
TORRINGTON     FAIR      68  37  32 E13G22    29.97F
PINE BLUFFS    FAIR      68  37  32 NE12G20   30.00S

$$



USA.gov is the U.S. government's official web portal to all federal, state and local government web resources and services.